Tracking 19832 objects as of 26-Aug-2019
HD Live streaming from Space Station
objects crossing your sky now

TITAN 3C TRANSTAGE DEB

Track TITAN 3C TRANSTAGE DEB now!


NORAD ID: 26050
Int'l Code: 1965-108AJ
Perigee: 984.5 km
Apogee: 29,864.9 km
Inclination: 26.1 °
Period: 533.7 minutes
Semi major axis: 21795 km
RCS: 0.1424 m2 (medium)
Launch date: December 21, 1965
Source: United States (US)
Launch site: AIR FORCE EASTERN TEST RANGE (AFETR)

Note: This is SATELLITE DEBRIS
aabbcc
Your satellite tracking list
Your tracking list is empty




NASA's NSSDC Master Catalog

Two Line Element Set (TLE):
1 26050U 65108AJ  19237.76396406 +.00000575 +00000-0 +44749-1 0  9992
2 26050 026.1113 112.2753 6625253 093.1135 338.5412 02.69803152199068
Source of the keplerian elements: AFSPC